{"data":{"norad_id":66101,"epoch":"2026-09-20T13:17:35.530944Z","epoch_age_seconds":95735,"freshness":"FRESH","line1":"1 66101U 25236R   26263.55388346  .00009251  00000+0  28457-3 0  9998","line2":"2 66101  53.1583 275.5970 0001337  72.3837 287.7311 15.34401653 52761","mean_motion":15.34401653,"eccentricity":0.0001337,"inclination_deg":53.1583,"raan_deg":275.597,"arg_perigee_deg":72.3837,"mean_anomaly_deg":287.7311,"bstar":0.00028457,"rev_number":5276,"period_min":93.847656979812,"perigee_km":461.78370746392,"apogee_km":463.6129468304,"semimajor_km":6840.8353271472,"source":"CELESTRAK","updated_at":"2026-09-21T09:00:35.803202Z"}}